Location: Alsip
(41.6689°N, 87.7387°W)
Time: 15:10:31
(UTC+00:00)

Meteor 2-11 Rocket - Pass Details

Date: 14 July 2020
Orbit: 939 x 957 km, 82.5° (Epoch: 12 August)

Event Time Altitude Azimuth Distance (km) Brightness Sun altitude
Exits shadow 08:44:47 20° 193° (SSW) 2,051 5.7 -15.8°
Maximum altitude 08:49:13 78° 278° (W) 965 4.4 -15.2°
Drops below altitude 10° 08:55:19 10° 5° (N) 2,663 7.6 -14.5°
Sets 08:57:49 0° 7° (N) 3,611 8.4 -14.2°
